This demonstration page uses our WeatherBlox Daily Observations layout. Learn more.

Left ArrowRight Arrow

39.01783, -85.05884

Hourly Observations for January 19, 2021

Temp ( °F °C ) Dew Point ( °F °C ) Humidity (%) Winds ( mph kmh ) Pressure ( in mb ) Visibility ( mi km ) Precip ( " mm )
12:52 am 00:52 Cloudy 35 1.7 28 -2.2 76 76 W 12 19 30.10 1019 9 14 0.00 0.00
1:52 am 01:52 Cloudy 34 1.1 30 -1.1 85 85 WSW 7 11 30.11 1020 9 14 0.00 0.00
2:52 am 02:52 Cloudy 33 0.6 30 -1.1 89 89 SW 7 11 30.13 1020 7 11 0.00 0.00
3:52 am 03:52 Cloudy 34 1.1 30 -1.1 85 85 SW 6 9 30.14 1021 7 11 0.00 0.00
4:52 am 04:52 Cloudy 33 0.6 30 -1.1 89 89 W 3 6 30.14 1021 7 11 0.00 0.00
5:52 am 05:52 Cloudy 33 0.6 30 -1.1 89 89 W 6 9 30.16 1021 8 13 0.00 0.00
6:52 am 06:52 Cloudy 32 0 29 -1.7 88 88 WNW 8 13 30.19 1022 8 13 0.00 0.00
7:52 am 07:52 Cloudy 32 0 25 -3.9 75 75 WNW 6 9 30.22 1023 10 16 0.00 0.00
8:52 am 08:52 Mostly Sunny 32 0 25 -3.9 75 75 WNW 5 7 30.22 1024 10 16 0.00 0.00
9:52 am 09:52 Sunny 35 1.7 24 -4.4 64 64 W 5 7 30.23 1024 10 16 0.00 0.00
10:52 am 10:52 Mostly Sunny 37 2.8 22 -5.6 54 54 SW 6 9 30.24 1024 10 16 0.00 0.00
11:52 am 11:52 Mostly Sunny 40 4.4 23 -5 51 51 WSW 8 13 30.24 1024 10 16 0.00 0.00
12:52 pm 12:52 Mostly Sunny 42 5.6 23 -5 47 47 W 9 15 30.22 1023 10 16 0.00 0.00
1:52 pm 13:52 Sunny 44 6.7 21 -6.1 40 40 W 9 15 30.20 1023 10 16 0.00 0.00
2:52 pm 14:52 Sunny 45 7.2 18 -7.8 34 34 WNW 10 17 30.19 1022 10 16 0.00 0.00
3:52 pm 15:52 Partly Cloudy 44 6.7 18 -7.8 35 35 WSW 9 15 30.19 1023 10 16 0.00 0.00
4:52 pm 16:52 Partly Cloudy 43 6.1 21 -6.1 42 42 SW 7 11 30.19 1022 10 16 0.00 0.00
5:52 pm 17:52 Partly Cloudy 40 4.4 21 -6.1 47 47 SW 7 11 30.19 1022 10 16 0.00 0.00
6:52 pm 18:52 Partly Cloudy 38 3.3 18 -7.8 44 44 WSW 7 11 30.19 1022 10 16 0.00 0.00
7:52 pm 19:52 Mostly Clear 37 2.8 20 -6.7 50 50 WSW 8 13 30.17 1022 10 16 0.00 0.00
8:52 pm 20:52 Cloudy 38 3.3 20 -6.7 48 48 WSW 8 13 30.16 1022 10 16 0.00 0.00
9:52 pm 21:52 Cloudy 38 3.3 21 -6.1 51 51 WSW 10 17 30.16 1021 10 16 0.00 0.00
10:52 pm 22:52 Cloudy 38 3.3 23 -5 55 55 WSW 10 17 30.14 1021 10 16 0.00 0.00
11:52 pm 23:52 Cloudy 38 3.3 25 -3.9 60 60 W 17 28 30.13 1020 10 16 0.00 0.00

Powered by AerisWeather